BADR-4

Last updated on Sat Jul 05 2025 00:02:44 GMT+0000 (Coordinated Universal Time)

1 29526U 06051A 25185.57059164 .00000158 00000+0 00000+0 0 9996 2 29526 1.1061 84.8585 0002207 1.3967 68.2187 1.00269444 47788
UTC large
Height (km)
Speed (km/s)
/
Latitude / Longitude
Inclination (degrees)
Orbital Period (minutes)
Azimuth
Elevation
Range (km)
Doppler Factor

Next 0 passes for location: London (51.5072 / 0.1276)

Sorry there are no passes over London.